Retour au catalogue

WGS 6

USA 244

ActifMilitaireGEO
NORAD 39222·PAYLOAD·🇺🇸 United States

Lancé Aug 8, 2013 depuis Cape Canaveral Space Force Station

Loading…

TLE

FraisSource: Space-Track

Époque: Sep 14, 2026, 13:27 UTC

1 39222U 13041A   26257.56054234  .00000081  00000-0  00000-0 0  9997
2 39222   0.0139 185.1231 0000186 182.3593  52.6362  1.00270980 46955

Suivez WGS 6 en temps réel avec AllMySat

Download on the App Store